Regional Weather Roundup
Issued by NWS

Home | Current Version | Previous Version | Graphics & Text | Print | Product List | Glossary On
Versions: 1 2 3 4 5 6 7 8 9 10 11 12 13 14 15 16 17 18 19 20 21 22 23 24 25 26 27 28 29 30 31 32 33 34 35 36 37 38 39 40 41 42 43 44 45 46 47 48 49 50
936
ASUS45 KABQ 131410
RWRNM
NEW MEXICO REGIONAL WEATHER ROUNDUP
NATIONAL WEATHER SERVICE ALBUQUERQUE NM
700 AM MST SAT FEB 13 2016

NOTE: "FAIR" MEANS FEW OR NO CLOUDS BELOW 12,000 FEET AGL WITH NO
       SIGNIFICANT WEATHER OR OBSTRUCTIONS TO VISION.

      THIS PRODUCT IS RELEASED AS TWO VERSIONS.  ONE VERSION NEAR
      THE TOP OF THE HOUR CONTAINING PRELIMINARY DATA FROM ALBUQUERQUE
      AND OTHER STATIONS.  A FINAL VERSION WITH ADDITIONAL DATA IS
      ISSUED ABOUT 10 MINUTES AFTER THE HOUR.

NMZ501-503-504-510>518-131500-
NORTHWEST PLATEAU/NORTHCENTRAL MOUNTAINS

CITY           SKY/WX    TMP DP  RH WIND       PRES   REMARKS
FARMINGTON     CLOUDY    27  23  85 E9        30.30S WCI  18
LOS ALAMOS     CLOUDY    40  20  44 CALM      30.34S
SANTA FE       CLOUDY    31  22  69 N13       30.31S WCI  21
TAOS           CLOUDY    25  19  80 N6        30.34S WCI  18
ANGEL FIRE     FAIR      11   9  91 CALM      30.36S

$$
NMZ402-403-502-505>509-131500-
WESTCENTRAL MOUNTAINS/SOUTHWEST MOUNTAINS

CITY           SKY/WX    TMP DP  RH WIND       PRES   REMARKS
GALLUP         CLEAR     19  16  88 CALM      30.33S
GRANTS         CLEAR     15  11  85 NW7       30.36S WCI   5
SILVER CITY      N/A     36  16  44 N9        30.31S WCI  29

$$
NMZ407-409-411-412-131500-
SOUTHERN DESERTS

CITY           SKY/WX    TMP DP  RH WIND       PRES   REMARKS
LORDSBURG      FAIR      32  14  47 CALM      30.25F
DEMING         PTCLDY    33  14  45 NW6       30.27R WCI  28
LAS CRUCES     PTCLDY    34  14  43 N3        30.28R
HOLLOMAN AFB   PTCLDY    31   8  38 W2        30.28R
ALAMOGORDO     CLOUDY    36  10  35 NE6       30.29R WCI  31
T OR C         PTCLDY    40  11  30 NW8       30.29R WCI  34

$$
NMZ519>523-131500-
CENTRAL VALLEYS/CENTRAL HIGHLANDS

CITY           SKY/WX    TMP DP  RH WIND       PRES   REMARKS
ALBUQUERQUE    CLOUDY    37  21  52 N7        30.31R WCI  32
DOUBLE EAGLE   PTCLDY    27  18  69 NW3       30.31S
MORIARTY ARPT  FAIR      18  15  86 CALM      30.34R
CLINES CORNERS CLOUDY    34  19  54 SW13      30.30S WCI  25
BELEN          FAIR      26  16  65 N3        30.31S
SOCORRO        FAIR      35  13  41 NW8       30.31R WCI  28

$$
NMZ524>526-539-540-131500-
SOUTHCENTRAL MOUNTAINS

CITY           SKY/WX    TMP DP  RH WIND       PRES   REMARKS
RUIDOSO          N/A     43   9  24 W8        30.36S

$$
NMZ527>531-131500-
NORTHEAST HIGHLANDS/NORTHEAST PLAINS

CITY           SKY/WX    TMP DP  RH WIND       PRES   REMARKS
LAS VEGAS      CLOUDY    35  19  52 S13       30.28S WCI  26
RATON          CLOUDY    26  19  74 NE3       30.25F
CLAYTON        CLOUDY    37  24  59 SW16      30.19F WCI  28

$$
NMZ532>537-131500-
EASTCENTRAL PLAINS

CITY           SKY/WX    TMP DP  RH WIND       PRES   REMARKS
TUCUMCARI      CLEAR     39  28  64 W13       30.25F WCI  31
CANNON AFB     CLOUDY    33  31  94 SW3       30.30S
CLOVIS AIRPORT CLOUDY    28  23  80 SW7       30.31S WCI  21

$$
NMZ028-029-538-131500-
SOUTHEAST PLAINS

CITY           SKY/WX    TMP DP  RH WIND       PRES   REMARKS
ROSWELL        CLOUDY    30  21  69 CALM      30.29R
ARTESIA        CLOUDY    32  23  69 W6        30.30S WCI  26
CARLSBAD       CLOUDY    30  23  75 W6        30.29R WCI  24
HOBBS          CLEAR     36  28  75 CALM      30.32R


$$




USA.gov is the U.S. government's official web portal to all federal, state and local government web resources and services.